Weather History for Provincetown, MA

Change the Weather History Date:

Tuesday, November 13, 2012

  Actual Average Record
Temperature  
Mean Temperature 52 °F -  
Max Temperature 60 °F 47 °F 69 °F (1951)
Min Temperature 44 °F 37 °F 30 °F (1997)
Degree Days  
Heating Degree Days 13    
Growing Degree Days 2 (Base 50)    
Moisture  
Dew Point 49 °F    
Average Humidity 86    
Maximum Humidity 94    
Minimum Humidity 71    
Precipitation  
Precipitation 0.71 in - - ()
Sea Level Pressure  
Sea Level Pressure 30.26 in    
Wind  
Wind Speed 15 mph (WNW)    
Max Wind Speed 22 mph    
Max Gust Speed 28 mph    
Visibility 9 miles    
Events      
Averages and records for this station are not official NWS values.
T = Trace of Precipitation, MM = Missing Value Source: NWS Daily Summary

Daily Weather History Graph

Daily Weather History Graph

Search for Another Location

Airport:

Trip Planner

Search our weather history database for the weather conditions in past years. The results will help you decide how hot, cold, wet, or windy it might be!

Date:

Astronomy

Nov. 13, 2012 Rise Set
Actual Time 6:29 AM EST 4:20 PM EST
Civil Twilight 5:59 AM EST 4:50 PM EST
Nautical Twilight 5:25 AM EST 5:24 PM EST
Astronomical Twilight 4:52 AM EST 5:57 PM EST
Moon 6:03 AM EST (11/13) 4:10 PM EST (11/13)
Length of Visible Light 10h 51m
Length of Day
9h 51m
Waning Crescent, 0% of the Moon is Illuminated
Nov 13
Waning Crescent
Nov 13
New
Nov 20
First Quarter
Nov 28
Full
Dec 6
Last Quarter

Hourly Weather History & Observations

Time (EST) Temp. Windchill Dew Point Humidity Pressure Visibility Wind Dir Wind Speed Gust Speed Precip Events Conditions
12:35 AM 60.8 °F - 57.2 °F 88% 30.26 in 10.0 mi South 15.0 mph 19.6 mph N/A   Mostly Cloudy
12:55 AM 60.8 °F - 57.2 °F 88% 30.26 in 10.0 mi South 16.1 mph 20.7 mph N/A   Partly Cloudy
1:15 AM 60.8 °F - 57.2 °F 88% 30.25 in 10.0 mi South 13.8 mph 19.6 mph N/A   Partly Cloudy
1:35 AM 59.0 °F - 57.2 °F 94% 30.25 in 10.0 mi South 12.7 mph 18.4 mph N/A   Partly Cloudy
1:55 AM 59.0 °F - 57.2 °F 94% 30.24 in 10.0 mi South 13.8 mph 20.7 mph N/A   Scattered Clouds
2:15 AM 60.8 °F - 57.2 °F 88% 30.24 in 10.0 mi South 16.1 mph 19.6 mph N/A   Scattered Clouds
2:35 AM 60.8 °F - 57.2 °F 88% 30.23 in 10.0 mi South 15.0 mph 23.0 mph N/A   Scattered Clouds
2:55 AM 59.0 °F - 55.4 °F 88% 30.22 in 10.0 mi South 13.8 mph 20.7 mph N/A   Mostly Cloudy
3:15 AM 59.0 °F - 55.4 °F 88% 30.22 in 10.0 mi South 16.1 mph 21.9 mph N/A   Mostly Cloudy
3:35 AM 57.2 °F - 55.4 °F 94% 30.20 in 10.0 mi South 17.3 mph 24.2 mph N/A   Mostly Cloudy
3:55 AM 57.2 °F - 55.4 °F 94% 30.20 in 10.0 mi South 15.0 mph 23.0 mph N/A   Mostly Cloudy
4:15 AM 57.2 °F - 55.4 °F 94% 30.19 in 10.0 mi South 13.8 mph 19.6 mph N/A   Mostly Cloudy
4:36 AM 59.0 °F - 57.2 °F 94% 30.19 in 10.0 mi South 13.8 mph - N/A   Mostly Cloudy
4:55 AM 59.0 °F - 57.2 °F 94% 30.19 in 10.0 mi South 12.7 mph 20.7 mph N/A   Overcast
5:15 AM 59.0 °F - 57.2 °F 94% 30.19 in 10.0 mi SSW 16.1 mph 23.0 mph N/A   Overcast
5:35 AM 59.0 °F - 57.2 °F 94% 30.19 in 10.0 mi SSW 16.1 mph 20.7 mph N/A   Overcast
5:55 AM 59.0 °F - 57.2 °F 94% 30.19 in 10.0 mi South 13.8 mph 20.7 mph N/A   Overcast
6:15 AM 59.0 °F - 57.2 °F 94% 30.19 in 10.0 mi South 16.1 mph 21.9 mph N/A   Overcast
6:35 AM 59.0 °F - 57.2 °F 94% 30.18 in 10.0 mi South 15.0 mph 20.7 mph N/A   Mostly Cloudy
7:15 AM 57.2 °F - 55.4 °F 94% 30.19 in 10.0 mi South 16.1 mph 21.9 mph N/A   Mostly Cloudy
7:35 AM 59.0 °F - 55.4 °F 88% 30.19 in 10.0 mi South 15.0 mph 24.2 mph N/A   Partly Cloudy
7:55 AM 59.0 °F - 55.4 °F 88% 30.19 in 10.0 mi SSW 15.0 mph 24.2 mph N/A   Clear
8:15 AM 59.0 °F - 55.4 °F 88% 30.19 in 5.0 mi SSW 18.4 mph 25.3 mph 0.02 in   Mostly Cloudy
8:35 AM 59.0 °F - 55.4 °F 88% 30.19 in 10.0 mi South 13.8 mph 20.7 mph 0.02 in   Mostly Cloudy
8:55 AM 59.0 °F - 57.2 °F 94% 30.18 in 10.0 mi SSW 16.1 mph 23.0 mph 0.02 in   Mostly Cloudy
9:15 AM 60.8 °F - 57.2 °F 88% 30.18 in 10.0 mi South 17.3 mph 24.2 mph N/A   Overcast
9:35 AM 60.8 °F - 57.2 °F 88% 30.19 in 7.0 mi SSW 18.4 mph 26.5 mph 0.01 in   Mostly Cloudy
9:55 AM 60.8 °F - 57.2 °F 88% 30.19 in 5.0 mi SSW 16.1 mph 24.2 mph 0.05 in   Overcast
10:15 AM 53.6 °F - 51.8 °F 94% 30.23 in 5.0 mi NW 16.1 mph 25.3 mph 0.11 in   Overcast
10:35 AM 51.8 °F - 50.0 °F 94% 30.23 in 4.0 mi NW 13.8 mph 20.7 mph 0.18 in   Overcast
10:55 AM 51.8 °F - 48.2 °F 88% 30.25 in 5.0 mi NW 17.3 mph 25.3 mph 0.21 in   Overcast
11:15 AM 51.8 °F - 48.2 °F 88% 30.24 in 7.0 mi NNW 16.1 mph 23.0 mph 0.03 in   Overcast
11:35 AM 51.8 °F - 48.2 °F 88% 30.24 in 3.0 mi NNW 11.5 mph 18.4 mph 0.08 in   Overcast
11:55 AM 51.8 °F - 48.2 °F 88% 30.24 in 3.0 mi North 9.2 mph - 0.15 in   Overcast
12:35 PM 53.6 °F - 48.2 °F 82% 30.23 in 5.0 mi NNW 6.9 mph - 0.05 in   Overcast
12:55 PM 51.8 °F - 48.2 °F 88% 30.23 in 8.0 mi NNW 4.6 mph - 0.06 in   Overcast
1:15 PM 53.6 °F - 48.2 °F 82% 30.22 in 10.0 mi NNW 4.6 mph - N/A   Overcast
1:55 PM 53.6 °F - 46.4 °F 77% 30.23 in 10.0 mi NNW 8.1 mph - N/A   Overcast
2:15 PM 53.6 °F - 48.2 °F 82% 30.23 in 10.0 mi NW 10.4 mph - N/A   Overcast
2:55 PM 51.8 °F - 46.4 °F 82% 30.25 in 8.0 mi NW 10.4 mph - 0.02 in   Mostly Cloudy
3:15 PM 51.8 °F - 46.4 °F 82% 30.26 in 7.0 mi NW 9.2 mph - 0.02 in   Overcast
3:35 PM 51.8 °F - 46.4 °F 82% 30.26 in 3.0 mi NW 12.7 mph 17.3 mph 0.05 in   Overcast
3:55 PM 51.8 °F - 46.4 °F 82% 30.27 in 9.0 mi NNW 17.3 mph - 0.06 in   Overcast
4:15 PM 51.8 °F - 46.4 °F 82% 30.27 in 4.0 mi NNW 15.0 mph 20.7 mph 0.05 in   Overcast
4:35 PM 50.0 °F - 46.4 °F 87% 30.28 in 9.0 mi NNW 15.0 mph 21.9 mph 0.09 in   Mostly Cloudy
4:55 PM 48.2 °F - 42.8 °F 82% 30.30 in 9.0 mi NNW 15.0 mph - 0.11 in   Overcast
5:16 PM 48.2 °F - 42.8 °F 82% 30.31 in 8.0 mi NNW 15.0 mph 21.9 mph 0.01 in   Overcast
5:35 PM 48.2 °F - 42.8 °F 82% 30.30 in 10.0 mi NNW 18.4 mph 24.2 mph 0.02 in   Overcast
5:55 PM 48.2 °F - 42.8 °F 82% 30.31 in 10.0 mi NNW 15.0 mph 20.7 mph 0.02 in   Overcast
6:16 PM 48.2 °F - 39.2 °F 71% 30.31 in 10.0 mi NNW 16.1 mph 25.3 mph N/A   Overcast
6:35 PM 48.2 °F - 41.0 °F 76% 30.33 in 10.0 mi NNW 19.6 mph 25.3 mph N/A   Overcast
6:55 PM 48.2 °F - 41.0 °F 76% 30.34 in 10.0 mi NNW 21.9 mph 26.5 mph N/A   Overcast
7:15 PM 46.4 °F 39.0 °F 39.2 °F 76% 30.34 in 10.0 mi NNW 19.6 mph 27.6 mph N/A   Overcast
7:35 PM 46.4 °F 38.7 °F 39.2 °F 76% 30.34 in 10.0 mi NNW 20.7 mph 26.5 mph N/A   Overcast
7:56 PM 46.4 °F 39.2 °F 39.2 °F 76% 30.33 in 10.0 mi North 18.4 mph 25.3 mph N/A   Overcast
8:15 PM 46.4 °F 40.1 °F 37.4 °F 71% 30.36 in 10.0 mi NNW 15.0 mph 25.3 mph N/A   Overcast
8:35 PM 46.4 °F 39.5 °F 39.2 °F 76% 30.36 in 10.0 mi North 17.3 mph 26.5 mph 0.01 in   Overcast
9:15 PM 46.4 °F 39.8 °F 39.2 °F 76% 30.37 in 10.0 mi North 16.1 mph 24.2 mph N/A   Overcast
9:35 PM 46.4 °F 40.1 °F 39.2 °F 76% 30.37 in 10.0 mi North 15.0 mph 23.0 mph N/A   Overcast
9:55 PM 46.4 °F 40.1 °F 41.0 °F 81% 30.37 in 10.0 mi North 15.0 mph 18.4 mph N/A   Overcast
10:15 PM 46.4 °F 39.5 °F 42.8 °F 87% 30.38 in 10.0 mi NNE 17.3 mph 21.9 mph N/A   Overcast
10:35 PM 46.4 °F 39.8 °F 42.8 °F 87% 30.39 in 10.0 mi NNE 16.1 mph 23.0 mph N/A   Overcast
10:36 PM 46.4 °F 39.5 °F 42.8 °F 87% 30.39 in 10.0 mi NNE 17.3 mph 23.0 mph N/A   Overcast
11:15 PM 44.6 °F 36.9 °F 39.2 °F 81% 30.40 in 10.0 mi NNE 18.4 mph 25.3 mph N/A   Overcast
11:35 PM 44.6 °F 36.4 °F 41.0 °F 87% 30.39 in 9.0 mi NNE 20.7 mph 27.6 mph N/A   Overcast
11:55 PM 44.6 °F 36.6 °F 39.2 °F 81% 30.40 in 10.0 mi NNE 19.6 mph 27.6 mph N/A   Overcast